Effective Sunday, March 17, 2024, the National Weather Service National Data Buoy Center will discontinue its Dial-A-Buoy Interactive Voice Response system. For more information, see Service Change Notice 24-06 (PDF).

Station 46082 (LLNR 1097) - Cape Suckling - 35 NM SE of Kayak Is, AK Image indicating link to RSS feed of recent meteorological observations for station 46082


Conditions at 46082 as of
(2:10 pm AKST)
2310 GMT on 03/01/2024:
     

Click on the graph icon in the table below to see a time series plot of the last five days of that observation.

5-day plot - Wind Direction Wind Direction (WDIR):ESE ( 120 deg true )
5-day plot - Wind Speed Wind Speed (WSPD): 5.8 kts
5-day plot - Wind Gust Wind Gust (GST): 9.7 kts
5-day plot - Wave Height Wave Height (WVHT): 5.2 ft
5-day plot - Average Wave Period Average Period (APD): 5.4 sec
5-day plot - Mean Wave Direction Mean Wave Direction (MWD):ESE ( 121 deg true )
5-day plot - Atmospheric Pressure Atmospheric Pressure (PRES):29.56 in
5-day plot - Air Temperature Air Temperature (ATMP): 35.6 °F
5-day plot - Water Temperature Water Temperature (WTMP): 43.0 °F
5-day plot - Dew Point Dew Point (DEWP): 25.2 °F
5-day plot - Wind Chill Wind Chill (CHILL): 30.0 °F
5-day plot - Wind Speed at 10 Meters Wind Speed at 10 meters (WSPD10M): 5.8 kts
5-day plot - Wind Speed at 20 Meters Wind Speed at 20 meters (WSPD20M): 7.8 kts
5-day plot -  Wind Speed, Wind Gust and Atmospheric Pressure Combined plot of Wind Speed, Gust, and Air Pressure
Supplemental Measurements
Highest 1-minute Wind Speed
Time (AKST)5-day plot - 1-Minute Wind Speed WSPD 5-day plot - 1-Minute Wind Direction WDIR
2:03 pm 7.8 kts-
Previous observations
TIME
(AKST)
5-day plot - Wind Direction
WDIR
 
5-day plot - Wind Speed
WSPD
kts
5-day plot - Wind Gust
GST
kts
5-day plot - Wave Height
WVHT
ft
5-day plot - Dominant Wave Period
DPD
sec
5-day plot - Average Wave Period
APD
sec
5-day plot - Mean Wave Direction
MWD
 
5-day plot - Atmospheric Pressure
PRES
in
5-day plot - Pressure Tendency
PTDY
in
5-day plot - Air Temperature
ATMP
°F
5-day plot - Water Temperature
WTMP
°F
5-day plot - Dew Point
DEWP
°F
5-day plot - Salinity
SAL
psu
5-day plot - Visibility
VIS
nmi
5-day plot - Tide (above MLLW)
TIDE
ft
2024-03-01 02:00 pmESE 7.8 9.7----29.56+0.03 35.6 43.0 25.3---
2024-03-01 01:50 pmESE 7.8 11.7 5.2 75.4ESE29.56- 35.6 43.0 25.7---
2024-03-01 01:40 pm SE 7.8 11.7----29.56- 35.6 43.0 25.3---
2024-03-01 01:30 pm SE 7.8 11.7----29.56- 35.8 43.0 25.9---
2024-03-01 01:20 pm SE 9.7 11.7 5.2 75.5 SE29.56- 35.8 43.0 25.7---
2024-03-01 01:10 pm SE 7.8 11.7 5.2-5.5 SE29.55- 35.6 43.0 25.2---
2024-03-01 01:00 pm SE 9.7 13.6----29.55+0.05 35.6 43.0 25.7---
2024-03-01 12:50 pm SE 9.7 13.6 5.6 75.6ESE29.55- 35.6 43.0 25.5---
2024-03-01 12:40 pm SE 9.7 13.6 5.6-5.6ESE29.55- 35.4 43.0 25.5---
2024-03-01 12:30 pmESE 9.7 15.5----29.55- 35.4 43.0 25.3---
2024-03-01 12:20 pm SE 11.7 15.5 5.6 85.6SSE29.55- 35.6 43.0 25.9---
2024-03-01 12:10 pm SE 11.7 15.5 5.6-5.6SSE29.55- 35.6 43.0 26.1---
2024-03-01 12:00 pm SE 11.7 15.5----29.54+0.05 35.6 43.0 25.9---
2024-03-01 11:50 am SE 9.7 15.5 5.6 75.6ESE29.54- 35.8 43.0 25.9---
2024-03-01 11:40 am SE 9.7 13.6----29.54- 35.8 43.0 25.7---
2024-03-01 11:30 am SE 11.7 13.6----29.54- 36.0 43.0 26.2---
2024-03-01 11:20 am SE 11.7 15.5 5.6 105.4 SW29.54- 35.8 43.0 25.7---
2024-03-01 11:10 am SE 9.7 15.5 5.6-5.4 SW29.54- 36.0 43.0 25.9---
2024-03-01 11:00 am SE 9.7 15.5----29.53+0.05 35.8- 25.7---
2024-03-01 10:50 am SE 11.7 15.5 5.6 75.4ESE29.52- 35.8 43.0 25.7---
2024-03-01 10:40 am SE 11.7 15.5----29.52- 35.6 43.0 25.3---
2024-03-01 10:30 am SE 11.7 17.5----29.52- 35.8 43.0 25.7---
2024-03-01 10:20 am SE 11.7 17.5 5.9 65.4ESE29.52- 35.8 43.0 26.4---
2024-03-01 10:10 am SE 11.7 15.5 5.9-5.4ESE29.51- 35.8 43.0 26.4---
2024-03-01 10:00 amSSE 13.6 17.5----29.51+0.04 36.0 43.0 27.1---
2024-03-01 09:50 am SE 13.6 17.5 5.9 65.4ESE29.51- 36.0 43.0 27.0---
2024-03-01 09:40 am SE 15.5 19.4 5.9-5.4ESE29.50- 35.8 43.0 27.0---
2024-03-01 09:30 am SE 15.5 19.4----29.50- 35.8 43.0 27.0---
2024-03-01 09:20 am SE 15.5 19.4 5.9 75.3 SE29.49- 36.0 43.0 27.3---
2024-03-01 09:10 am SE 13.6 19.4 5.9-5.3 SE29.49- 35.8 43.0 26.8---
2024-03-01 09:00 am SE 13.6 17.5----29.49+0.03 36.0 43.0 27.1---
2024-03-01 08:50 am SE 13.6 17.5 5.6 75.3ESE29.49- 36.0 43.0 27.3---
2024-03-01 08:40 am SE 13.6 17.5----29.49- 36.1 43.0 27.9---
2024-03-01 08:30 am SE 13.6 15.5----29.49- 36.1 43.0 27.5---
2024-03-01 08:20 am SE 11.7 15.5 5.6 75.3 SE29.48- 36.1 43.0 27.7---
2024-03-01 08:10 am SE 11.7 17.5 5.6-5.3 SE29.48- 36.1 43.0 27.7---
2024-03-01 08:00 am SE 11.7 17.5----29.48+0.02 36.1 43.0 27.7---
2024-03-01 07:50 am SE 13.6 17.5 5.9 75.5 SE29.48- 36.1 43.0 27.7---
2024-03-01 07:40 am SE 13.6 17.5----29.47- 36.1 43.0 28.0---
2024-03-01 07:30 am SE 13.6 19.4----29.47- 36.1 43.0 27.9---
2024-03-01 07:20 am SE 13.6 17.5 5.9 85.7 SE29.47- 36.3 43.0 28.2---
2024-03-01 07:10 am SE 13.6 17.5 5.9-5.7 SE29.47- 36.3 43.0 28.4---
2024-03-01 07:00 am SE 13.6 17.5----29.46+0.01 36.5 43.0 28.8---
2024-03-01 06:50 am SE 13.6 17.5 5.9 85.5 SE29.47- 36.5 43.0 28.8---
2024-03-01 06:40 am SE 13.6 19.4 5.9-5.5 SE29.46- 36.5 43.0 28.9---
2024-03-01 06:30 am SE 11.7 17.5----29.46- 36.7 43.0 28.9---
2024-03-01 06:20 am SE 13.6 17.5 5.9 115.9 SW29.46- 36.7 43.0 29.1---
2024-03-01 06:10 am SE 13.6 19.4 5.9-5.9 SW29.46- 36.9 43.0 29.5---
2024-03-01 06:00 am SE 11.7 15.5----29.46+0.01 37.0 43.0 29.5---
2024-03-01 05:50 am SE 13.6 15.5 5.6 75.5 SE29.46- 36.7 43.0 28.2---
2024-03-01 05:40 am SE 11.7 15.5----29.46- 36.7 43.0 28.6---
2024-03-01 05:30 am SE 11.7 15.5----29.46- 36.9 43.0 28.9---
2024-03-01 05:20 am SE 11.7 19.4 6.2 85.8ESE29.46- 36.9 43.0 29.1---
2024-03-01 05:10 am SE 13.6 17.5 6.2-5.8ESE29.45- 36.9 43.0 29.1---
2024-03-01 05:00 am SE 13.6 15.5----29.46+0.01 37.0 43.0 29.5---
2024-03-01 04:50 am SE 11.7 19.4 5.9 75.5 SE29.45- 36.9 43.0 29.1---
2024-03-01 04:40 am SE 11.7 15.5----29.45- 36.9 43.0 29.5---
2024-03-01 04:30 am SE 11.7 15.5----29.45- 37.0 43.0 29.5---
2024-03-01 04:20 am SE 11.7 17.5 5.9 115.8 SW29.45- 37.2 43.0 29.8---
2024-03-01 04:10 am SE 11.7 15.5 5.9-5.8 SW29.45- 37.0 43.0 29.1---
2024-03-01 04:00 amSSE 11.7 15.5----29.45+0.00 37.0 43.0 28.8---
2024-03-01 03:50 amSSE 11.7 13.6 5.9 85.5 SE29.45- 37.0 43.0 28.9---
2024-03-01 03:40 amSSE 11.7 13.6----29.45- 37.2 43.0 29.3---
2024-03-01 03:30 amSSE 11.7 15.5----29.45- 37.0 43.0 28.6---
2024-03-01 03:20 amSSE 11.7 15.5 6.6 85.7ESE29.45- 37.2 43.0 29.1---
2024-03-01 03:10 amSSE 11.7 15.5 6.6-5.7ESE29.45- 37.2 43.0 29.1---
2024-03-01 03:00 amSSE 11.7 13.6----29.45+0.01 37.4 42.8 29.7---
2024-03-01 02:50 amSSE 9.7 15.5 5.9 85.7ESE29.45- 37.4 43.0 29.5---
2024-03-01 02:40 amSSE 9.7 13.6 5.9-5.7ESE29.45- 37.2 42.8 29.1---
2024-03-01 02:30 am SE 9.7 13.6----29.45- 37.0 42.8 30.0---
2024-03-01 02:20 amSSE 9.7 13.6 6.2 85.9 SE29.45- 37.0 42.8 30.6---
2024-03-01 02:10 am SE 9.7 13.6----29.45- 37.2 42.8 30.4---
2024-03-01 02:00 am SE 9.7 13.6----29.45+0.02 37.0 42.8 31.1---
2024-03-01 01:50 am NE 3.9 9.7 6.2 86.0ESE29.45- 35.8 42.8 31.8---
2024-03-01 01:40 amNNW 1.9 5.8----29.45- 35.6 43.0 31.8---
2024-03-01 01:30 am N 3.9 7.8----29.44- 35.8 42.8 32.2---
2024-03-01 01:20 am NW 5.8 7.8 6.6 85.7 SE29.45- 35.4 42.8 32.0---
2024-03-01 01:10 amWNW 3.9 7.8 6.6-5.7 SE29.44- 35.6 42.8 32.2---
2024-03-01 01:00 am W 1.9 5.8----29.44+0.03 35.4 42.8 31.8---
2024-03-01 12:50 am SW 3.9 5.8 6.9 125.9 SW29.44- 35.2 43.0 31.6---
2024-03-01 12:40 am S 5.8 9.7 6.9-5.9 SW29.44- 35.2 42.8 32.0---
2024-03-01 12:30 am S 7.8 11.7----29.44- 35.8 43.0 32.0---
2024-03-01 12:20 am NE 7.8 15.5 7.2 86.1 SE29.44- 35.8 43.0 32.0---
2024-03-01 12:10 amNNE 13.6 19.4 7.2-6.1 SE29.44- 35.8 42.8 31.8---
2024-03-01 12:00 amNNE 13.6 19.4----29.44+0.03 35.6 43.0 31.3---
2024-02-29 11:50 pmNNE 13.6 19.4 7.5 116.3 SW29.43- 35.8 42.8 31.3---
2024-02-29 11:40 pm NE 13.6 17.5----29.43- 35.6 43.0 30.9---
2024-02-29 11:30 pm NE 13.6 19.4----29.43- 35.8 43.0 31.1---
2024-02-29 11:20 pm NE 13.6 17.5 7.5 96.1SSW29.43- 35.4 43.0 30.6---
2024-02-29 11:10 pm NE 13.6 17.5 7.5-6.1SSW29.43- 35.6 42.8 30.7---
2024-02-29 11:00 pm NE 13.6 17.5----29.43+0.04 35.8 43.0 30.9---
2024-02-29 10:50 pm NE 13.6 19.4 7.9 116.2WSW29.43- 35.8 43.0 30.7---
2024-02-29 10:40 pm NE 13.6 17.5 7.9-6.2WSW29.43- 35.8 43.0 30.9---
2024-02-29 10:30 pm NE 13.6 19.4----29.42- 35.4 42.8 30.4---
2024-02-29 10:20 pm NE 13.6 17.5 7.5 115.8WSW29.42- 35.6 43.0 30.6---
2024-02-29 10:10 pm NE 13.6 17.5 7.5-5.8WSW29.42- 35.6 43.0 30.6---
2024-02-29 10:00 pm NE 15.5 19.4----29.42+0.04 35.2 43.0 30.2---
2024-02-29 09:50 pm NE 13.6 21.4 7.9 85.9ESE29.42- 35.4 43.0 30.4---
2024-02-29 09:40 pm NE 13.6 19.4 7.9-5.9ESE29.42- 35.4 43.0 30.2---
2024-02-29 09:30 pm NE 13.6 17.5----29.42- 35.4 43.0 30.2---
2024-02-29 09:20 pm NE 13.6 17.5 8.9 116.4WSW29.41- 35.8 43.0 30.6---
2024-02-29 09:10 pm NE 13.6 17.5 8.9-6.4WSW29.41- 35.8 43.0 30.4---
2024-02-29 09:00 pmNNE 13.6 19.4----29.41+0.05 36.0 43.0 30.4---
2024-02-29 08:50 pmNNE 13.6 19.4 8.9 126.3WSW29.41- 35.8 43.0 30.0---
2024-02-29 08:40 pm NE 7.8 19.4----29.41- 36.7 43.0 29.8---
2024-02-29 08:30 pm E 5.8 11.7----29.41- 37.8 43.0 28.8---
2024-02-29 08:20 pmESE 7.8 11.7 8.5 86.3 SE29.40- 37.8 43.0 28.6---
2024-02-29 08:10 pmESE 9.7 15.5 8.5-6.3 SE29.40- 37.8 43.0 28.6---
2024-02-29 08:00 pmESE 9.7 15.5----29.40+0.06 37.9 43.0 29.3---
2024-02-29 07:50 pmESE 9.7 13.6 8.5 86.4 SE29.39- 37.8 43.0 29.1---
2024-02-29 07:40 pmESE 9.7 13.6----29.39- 37.8 43.0 29.1---
2024-02-29 07:30 pmESE 9.7 13.6----29.39- 37.8 43.0 29.3---
2024-02-29 07:20 pmESE 9.7 13.6 8.9 76.5 SE29.38- 37.8 43.0 29.1---
2024-02-29 07:10 pmESE 9.7 13.6 8.9-6.5 SE29.38- 37.8 43.0 29.1---
2024-02-29 07:00 pmESE 9.7 15.5----29.38+0.06 37.8 43.0 29.5---
2024-02-29 06:50 pmESE 9.7 13.6 8.9 86.5ESE29.37- 37.8 43.0 29.7---
2024-02-29 06:40 pm SE 11.7 15.5 8.9-6.5ESE29.37- 37.8 43.0 29.8---
2024-02-29 06:30 pm E 11.7 15.5----29.37- 37.8 43.0 30.0---
2024-02-29 06:20 pm E 11.7 17.5 9.5 86.4 SE29.36- 37.8 43.0 29.8---
2024-02-29 06:10 pmESE 11.7 15.5 9.5-6.4 SE29.36- 37.6 43.0 29.3---
2024-02-29 06:00 pmESE 13.6 21.4----29.36+0.06 37.6 43.0 29.1---
2024-02-29 05:50 pm E 13.6 19.4 9.2 96.5 SE29.36- 37.6 43.0 29.3---
2024-02-29 05:40 pmESE 13.6 19.4----29.35- 37.8 43.0 30.0---
2024-02-29 05:30 pm E 13.6 17.5----29.35- 37.6 43.0 29.8---
2024-02-29 05:20 pm E 13.6 17.5 9.5 96.5 SE29.34- 37.6 43.0 29.5---
2024-02-29 05:10 pmESE 13.6 19.4 9.5-6.5 SE29.34- 37.6 43.0 29.7---
2024-02-29 05:00 pmESE 13.6 19.4----29.34+0.06 37.4 43.0 29.3---
2024-02-29 04:50 pmESE 15.5 19.4 8.9 86.3ESE29.34- 37.6 43.0 29.7---
2024-02-29 04:40 pmESE 15.5 19.4 8.9-6.3ESE29.33- 37.6 43.0 29.7---
2024-02-29 04:30 pmESE 15.5 21.4----29.33- 37.6 43.0 30.4---
2024-02-29 04:20 pmESE 15.5 21.4 9.8 86.5 SE29.33- 37.6 43.0 30.6---
2024-02-29 04:10 pmESE 17.5 21.4 9.8-6.5 SE29.32- 37.6 43.0 30.9---
2024-02-29 04:00 pmESE 17.5 23.3----29.32+0.05 37.6 43.0 31.5---
2024-02-29 03:50 pmESE 17.5 23.3 10.2 96.5ESE29.31- 37.4 43.0 30.7---
2024-02-29 03:40 pmESE 17.5 23.3----29.31- 37.6 43.0 30.6---
2024-02-29 03:30 pmESE 19.4 23.3----29.31- 37.4 43.0 30.4---
2024-02-29 03:20 pmESE 17.5 23.3 11.5 96.6 SE29.31- 37.2 43.0 31.3---
2024-02-29 03:10 pm SE 17.5 23.3 11.5-6.6 SE29.30- 36.7 43.0 31.8---
2024-02-29 03:00 pmESE 19.4 25.3----29.30+0.06 37.0 43.0 30.9---
2024-02-29 02:50 pmESE 19.4 25.3 11.5 96.7 SE29.30- 37.4 43.0 31.3---
2024-02-29 02:40 pmESE 19.4 25.3----29.29- 37.4 43.0 31.5---
2024-02-29 02:00 pmESE 21.4 31.1 10.8-6.5ESE29.28+0.07 37.0 43.0 32.5---
2024-02-29 01:50 pmESE 21.4 27.2 12.1 96.7ESE29.27- 36.5 43.0 33.4---

Detailed Wave Summary
for 46082 as of (2:10 pm AKST)
2310 GMT on 03/01/2024:

These wave data are displayed in rounded times.

     

Click on the graph icon in the table below to see a time series plot of the last five days of that observation.

5-day plot - Significant Wave Height Significant Wave Height (WVHT): 5.2 ft
5-day plot - Swell Height Swell Height (SwH): 4.9 ft
5-day plot - Swell Period Swell Period (SwP): 6.2 sec
5-day plot - Swell Direction Swell Direction (SwD):ESE
5-day plot - Wind Wave Height Wind Wave Height (WWH): 2.0 ft
5-day plot - Wind Wave Period Wind Wave Period (WWP): 3.8 sec
5-day plot - Wind Wave Direction Wind Wave Direction (WWD):ESE
5-day plot - Wave Steepness Wave Steepness (STEEPNESS): STEEP
5-day plot - Average Wave Period Average Wave Period (APD): 5.4 sec
Previous observations
TIME
(AKST)
5-day plot - Wave Height
WVHT
ft
5-day plot - Swell Height
SwH
ft
5-day plot - Swell Period
SwP
sec
5-day plot - Swell Direction
SwD
 
5-day plot - Wind Wave Height
WWH
ft
5-day plot - Wind Wave Period
WWP
sec
5-day plot - Wind Wave Direction
WWD
 
5-day plot - Wave Steepness
STEEPNESS
 
5-day plot - Average Wave Period
APD
sec
2024-03-01 01:40 pm 5.2 4.9 6.7ESE 1.6 3.7 SE STEEP 5.4
2024-03-01 01:10 pm 5.2 5.2 7.1 SE 1.6 3.8 SE STEEP 5.5
2024-03-01 12:40 pm 5.6 4.9 7.1ESE 2.6 4.2 SE STEEP 5.6
2024-03-01 12:10 pm 5.6 4.9 8.3SSE 3.0 5.0 SE AVERAGE 5.6
2024-03-01 11:40 am 5.6 4.9 6.7ESE 2.6 4.5 SE STEEP 5.6
2024-03-01 11:10 am 5.6 4.6 10.0 SW 3.0 4.8 SE SWELL 5.4
2024-03-01 10:40 am 5.6 4.6 7.1ESE 3.3 5.3 SE STEEP 5.4
2024-03-01 10:10 am 5.9 3.9 7.1ESE 4.3 6.2 ESEVERY_STEEP 5.4
2024-03-01 09:40 am 5.9 3.6 10.0SSW 4.9 5.9 ESEVERY_STEEP 5.4
2024-03-01 09:10 am 5.9 3.6 7.1 SE 4.6 5.3 SE STEEP 5.3
2024-03-01 08:40 am 5.6 4.3 6.7ESE 3.9 4.8 SE STEEP 5.3
2024-03-01 08:10 am 5.6 4.3 6.7 SE 3.6 5.9 SE STEEP 5.3
2024-03-01 07:40 am 5.9 4.3 7.1 SE 4.3 5.9 SE STEEP 5.5
2024-03-01 07:10 am 5.9 4.6 7.7 SE 3.6 5.6 SE STEEP 5.7
2024-03-01 06:40 am 5.9 4.3 7.7 SE 3.9 5.6 SE STEEP 5.5
2024-03-01 06:10 am 5.9 4.9 11.4 SW 3.6 6.2 SE SWELL 5.9
2024-03-01 05:40 am 5.6 4.6 7.1 SE 3.6 3.6 ESE STEEP 5.5
2024-03-01 05:10 am 6.2 4.9 7.7ESE 3.6 6.2 SE STEEP 5.8
2024-03-01 04:40 am 5.9 4.9 7.1 SE 3.6 5.6 SE STEEP 5.5
2024-03-01 04:10 am 5.9 4.9 10.8 SW 3.3 5.3 ESE SWELL 5.8
2024-03-01 03:40 am 5.9 4.9 7.7 SE 3.3 5.3 ESE STEEP 5.5
2024-03-01 03:10 am 6.6 5.2 8.3ESE 3.6 4.2 ENE AVERAGE 5.7
2024-03-01 02:40 am 5.9 5.2 7.7ESE 2.6 4.2 NE STEEP 5.7
2024-03-01 02:10 am 6.2 5.9 8.3 SE 2.6 4.3 NNE AVERAGE 5.9
2024-03-01 01:40 am 6.2 6.2 7.7ESE 2.0 3.7 E STEEP 6.0
2024-03-01 01:10 am 6.6 6.2 8.3 SE 2.0 3.8 ENE AVERAGE 5.7
2024-03-01 12:40 am 6.9 6.6 12.1 SW 2.3 3.6 NNE SWELL 5.9
2024-03-01 12:10 am 7.2 5.9 8.3 SE 4.3 5.9 SE STEEP 6.1
2024-02-29 11:40 pm 7.5 5.9 10.8 SW 4.9 6.2 SE SWELL 6.3
2024-02-29 11:10 pm 7.5 5.9 9.1SSW 4.9 6.2 SE AVERAGE 6.1
2024-02-29 10:40 pm 7.9 6.2 11.4WSW 4.9 6.2 SE SWELL 6.2
2024-02-29 10:10 pm 7.5 5.6 10.8WSW 5.2 6.2 SE SWELL 5.8
2024-02-29 09:40 pm 7.9 5.6 8.3ESE 5.6 6.7 ESE STEEP 5.9
2024-02-29 09:10 pm 8.9 7.2 11.4WSW 5.2 6.2 ESE SWELL 6.4
2024-02-29 08:40 pm 8.9 8.5 12.1WSW 2.3 3.2 ENE SWELL 6.3
2024-02-29 08:10 pm 8.5 8.2 8.3 SE 2.6 4.0 SE STEEP 6.3
2024-02-29 07:40 pm 8.5 8.2 8.3 SE 3.0 3.7 ESE STEEP 6.4
2024-02-29 07:10 pm 8.9 8.2 6.7 SE 3.0 4.8 SEVERY_STEEP 6.5
2024-02-29 06:40 pm 8.9 8.2 7.7ESE 3.0 4.8 ESE STEEP 6.5
2024-02-29 06:10 pm 9.5 8.5 7.7 SE 4.3 5.6 SE STEEP 6.4
2024-02-29 05:40 pm 9.2 7.5 9.1 SE 5.6 5.9 ESE AVERAGE 6.5
2024-02-29 05:10 pm 9.5 7.5 9.1 SE 5.6 5.3 SE AVERAGE 6.5
2024-02-29 04:40 pm 8.9 5.6 8.3ESE 6.9 5.0 SE STEEP 6.3
2024-02-29 04:10 pm 9.8 5.6 9.1ESE 8.2 7.7 SE STEEP 6.5
2024-02-29 03:40 pm 10.2 3.9 12.1 SW 9.5 9.1 ESE STEEP 6.5
2024-02-29 03:10 pm 11.5 6.6 9.1 SE 9.5 7.1 ESE STEEP 6.6
2024-02-29 02:40 pm 11.5 4.6 12.9 SW 10.5 9.1 SE STEEP 6.7
2024-02-29 02:10 pm 10.8 6.2 12.9 SW 8.9 8.3 ESE STEEP 6.5

Plot of wave energy versus frequency (and period)